Paynesville, MN

7:57 PM CST on February 06, 2016 (GMT -0600)
Paynesville

Weather History for KPEX - October, 2012

Change the Weather History Date:

Wednesday, October 17, 2012

  Actual Average (KLJF) Record (KLJF)
Temperature  
Mean Temperature 50 °F -  
Max Temperature 58 °F 58 °F 83 °F (1991)
Min Temperature 43 °F 35 °F 14 °F (1952)
Degree Days  
Heating Degree Days 14    
Moisture  
Dew Point 45 °F    
Average Humidity 80    
Maximum Humidity 91    
Minimum Humidity 63    
Precipitation  
Precipitation 0.00 in - - ()
Sea Level Pressure  
Sea Level Pressure 29.23 in    
Wind  
Wind Speed 9 mph (SW)    
Max Wind Speed 24 mph    
Max Gust Speed 33 mph    
Visibility 10 miles    
Events Rain    
Averages and records for this station are not official NWS values.
T = Trace of Precipitation, MM = Missing Value Source: NWS Daily Summary

Daily Weather History Graph

Daily Weather History Graph

Search for Another Location

Airport or City:

Trip Planner

Search our weather history database for the weather conditions in past years. The results will help you decide how hot, cold, wet, or windy it might be!

Date:

Astronomy

Oct. 17, 2012 Rise Set
Actual Time 7:38 AM CDT 6:29 PM CDT
Civil Twilight 7:08 AM CDT 6:59 PM CDT
Nautical Twilight 6:34 AM CDT 7:33 PM CDT
Astronomical Twilight 6:00 AM CDT 8:07 PM CDT
Moon 10:22 AM CDT (10/17) 7:56 PM CDT (10/17)
Length of Visible Light 11h 50m
Length of Day
10h 50m
Waxing Crescent, 7% of the Moon is Illuminated
Oct 17
Waxing Crescent
Oct 21
First Quarter
Oct 29
Full
Nov 6
Last Quarter
Nov 13
New

Hourly Weather History & Observations

Time (CDT) Temp. Windchill Dew Point Humidity Pressure Visibility Wind Dir Wind Speed Gust Speed Precip Events Conditions
12:13 AM 53.6 °F - 46.4 °F 77% 29.35 in 10.0 mi SE 8.1 mph - N/A   Clear
12:34 AM 53.6 °F - 46.6 °F 77% 29.35 in 10.0 mi SE 6.9 mph - N/A   Clear
12:53 AM 53.4 °F - 46.8 °F 78% 29.34 in 10.0 mi SE 6.9 mph - N/A   Clear
1:14 AM 52.9 °F - 46.6 °F 79% 29.33 in 10.0 mi ESE 8.1 mph - N/A   Clear
1:33 AM 53.6 °F - 46.9 °F 78% 29.33 in 10.0 mi SE 5.8 mph - N/A   Clear
1:53 AM 52.9 °F - 46.8 °F 80% 29.31 in 10.0 mi ESE 6.9 mph - N/A   Clear
2:14 AM 52.5 °F - 46.6 °F 80% 29.31 in 10.0 mi Calm Calm - N/A   Clear
2:34 AM 52.7 °F - 47.3 °F 82% 29.31 in 10.0 mi SE 3.5 mph - N/A   Clear
2:53 AM 52.7 °F - 47.3 °F 82% 29.30 in 10.0 mi SE 4.6 mph - N/A   Clear
3:13 AM 52.7 °F - 47.3 °F 82% 29.30 in 10.0 mi SE 3.5 mph - N/A   Mostly Cloudy
3:34 AM 52.7 °F - 46.9 °F 81% 29.28 in 10.0 mi SE 5.8 mph - N/A   Overcast
3:53 AM 52.7 °F - 47.1 °F 81% 29.26 in 10.0 mi Calm Calm - N/A   Overcast
4:13 AM 51.3 °F - 46.4 °F 83% 29.23 in 10.0 mi ENE 4.6 mph - N/A   Mostly Cloudy
4:33 AM 51.3 °F - 46.6 °F 84% 29.23 in 10.0 mi East 5.8 mph - N/A   Mostly Cloudy
4:53 AM 51.4 °F - 46.8 °F 84% 29.22 in 7.0 mi East 4.6 mph - N/A   Overcast
5:14 AM 52.0 °F - 46.8 °F 82% 29.21 in 10.0 mi Calm Calm - N/A   Overcast
5:34 AM 52.5 °F - 46.9 °F 81% 29.20 in 10.0 mi East 3.5 mph - N/A Rain Light Rain
5:53 AM 52.7 °F - 47.3 °F 82% 29.18 in 10.0 mi East 5.8 mph - N/A   Overcast
6:14 AM 52.9 °F - 46.9 °F 80% 29.16 in 10.0 mi East 6.9 mph - N/A   Overcast
6:33 AM 52.7 °F - 46.8 °F 80% 29.15 in 10.0 mi East 8.1 mph - N/A   Mostly Cloudy
6:53 AM 53.1 °F - 46.6 °F 79% 29.14 in 10.0 mi East 6.9 mph - N/A   Overcast
7:13 AM 52.9 °F - 46.6 °F 79% 29.13 in 10.0 mi East 6.9 mph - N/A   Mostly Cloudy
7:33 AM 53.2 °F - 46.2 °F 77% 29.12 in 10.0 mi East 5.8 mph - N/A   Mostly Cloudy
7:54 AM 54.1 °F - 46.0 °F 74% 29.11 in 10.0 mi ESE 10.4 mph - N/A   Overcast
8:13 AM 54.7 °F - 45.5 °F 71% 29.11 in 10.0 mi SE 6.9 mph - N/A   Overcast
8:33 AM 54.5 °F - 45.7 °F 72% 29.10 in 10.0 mi SE 9.2 mph - N/A   Scattered Clouds
8:53 AM 54.7 °F - 45.7 °F 72% 29.10 in 7.0 mi SE 5.8 mph - N/A   Scattered Clouds
9:13 AM 55.4 °F - 45.9 °F 70% 29.09 in 5.0 mi SE 6.9 mph - N/A   Haze
9:33 AM 56.1 °F - 46.0 °F 69% 29.09 in 7.0 mi SE 4.6 mph - N/A   Clear
9:53 AM 57.2 °F - 45.7 °F 65% 29.07 in 10.0 mi SW 4.6 mph - N/A   Clear
10:13 AM 58.1 °F - 45.5 °F 63% 29.08 in 10.0 mi WSW 10.4 mph - N/A   Clear
10:34 AM 57.2 °F - 46.4 °F 67% 29.11 in 10.0 mi West 16.1 mph 19.6 mph N/A   Mostly Cloudy
10:53 AM 56.1 °F - 47.3 °F 72% 29.12 in 10.0 mi West 17.3 mph 20.7 mph N/A   Overcast
11:13 AM 54.1 °F - 48.9 °F 82% 29.14 in 5.0 mi West 18.4 mph 23.0 mph N/A   Haze
11:53 AM 50.9 °F - 48.2 °F 90% 29.17 in 10.0 mi West 24.2 mph 33.4 mph N/A   Overcast
12:14 PM 50.5 °F - 47.1 °F 88% 29.19 in 10.0 mi West 21.9 mph 28.8 mph N/A   Overcast
12:33 PM 50.5 °F - 45.5 °F 83% 29.20 in 10.0 mi West 20.7 mph 31.1 mph N/A   Overcast
12:54 PM 51.3 °F - 45.5 °F 81% 29.20 in 10.0 mi West 15.0 mph 27.6 mph N/A   Overcast
1:13 PM 50.9 °F - 45.5 °F 82% 29.20 in 10.0 mi WSW 23.0 mph 28.8 mph N/A   Overcast
1:33 PM 51.1 °F - 44.8 °F 79% 29.20 in 10.0 mi West 21.9 mph 29.9 mph N/A   Overcast
1:54 PM 51.8 °F - 43.5 °F 73% 29.20 in 10.0 mi West 19.6 mph 26.5 mph N/A   Overcast
2:13 PM 52.7 °F - 43.3 °F 70% 29.21 in 10.0 mi WSW 18.4 mph 25.3 mph N/A   Overcast
2:33 PM 52.9 °F - 43.0 °F 69% 29.21 in 10.0 mi WSW 19.6 mph 26.5 mph N/A   Overcast
2:54 PM 52.9 °F - 42.8 °F 69% 29.21 in 10.0 mi West 13.8 mph - N/A   Overcast
3:13 PM 53.6 °F - 43.2 °F 68% 29.22 in 10.0 mi West 15.0 mph 20.7 mph N/A   Overcast
3:33 PM 53.1 °F - 43.2 °F 69% 29.22 in 10.0 mi WSW 15.0 mph - N/A   Overcast
3:54 PM 54.0 °F - 43.3 °F 67% 29.23 in 10.0 mi WSW 15.0 mph - N/A   Overcast
4:14 PM 54.0 °F - 43.2 °F 67% 29.22 in 10.0 mi WSW 17.3 mph 20.7 mph N/A   Overcast
4:33 PM 53.6 °F - 43.7 °F 69% 29.23 in 10.0 mi WSW 13.8 mph - N/A   Overcast
4:54 PM 52.2 °F - 45.3 °F 78% 29.23 in 10.0 mi West 18.4 mph 21.9 mph N/A Rain Rain
5:13 PM 50.4 °F - 44.6 °F 81% 29.25 in 10.0 mi WSW 20.7 mph - N/A   Overcast
5:33 PM 47.8 °F - 45.0 °F 90% 29.25 in 2.5 mi West 16.1 mph 25.3 mph N/A Rain Rain
5:53 PM 46.8 °F - 44.1 °F 90% 29.26 in 7.0 mi West 16.1 mph 21.9 mph N/A   Overcast
6:13 PM 46.4 °F 39.0 °F 43.0 °F 88% 29.28 in 10.0 mi West 19.6 mph 23.0 mph N/A   Overcast
6:34 PM 46.2 °F 40.5 °F 42.1 °F 85% 29.28 in 10.0 mi West 12.7 mph 20.7 mph N/A   Overcast
6:53 PM 46.0 °F 39.3 °F 41.5 °F 84% 29.28 in 10.0 mi West 16.1 mph - N/A   Overcast
7:13 PM 46.0 °F 39.6 °F 41.0 °F 83% 29.30 in 10.0 mi West 15.0 mph - N/A   Overcast
7:33 PM 45.0 °F 38.5 °F 41.9 °F 89% 29.30 in 7.0 mi West 13.8 mph 17.3 mph N/A   Overcast
7:54 PM 45.0 °F 38.9 °F 40.3 °F 84% 29.30 in 10.0 mi West 12.7 mph - N/A   Overcast
8:13 PM 45.1 °F 39.1 °F 40.1 °F 82% 29.30 in 10.0 mi West 12.7 mph - N/A   Overcast
8:33 PM 44.8 °F 39.4 °F 40.1 °F 84% 29.30 in 10.0 mi West 10.4 mph - N/A   Overcast
8:54 PM 44.8 °F 39.0 °F 40.1 °F 84% 29.30 in 10.0 mi West 11.5 mph 18.4 mph N/A   Overcast
9:13 PM 44.4 °F 39.0 °F 40.5 °F 86% 29.30 in 10.0 mi West 10.4 mph 17.3 mph N/A   Overcast
9:33 PM 44.1 °F 37.4 °F 40.1 °F 86% 29.29 in 10.0 mi West 13.8 mph 18.4 mph N/A   Overcast
9:54 PM 44.1 °F 38.1 °F 40.1 °F 86% 29.29 in 10.0 mi West 11.5 mph - N/A   Overcast
10:14 PM 43.9 °F 37.5 °F 39.9 °F 86% 29.29 in 10.0 mi West 12.7 mph 17.3 mph N/A   Overcast
10:33 PM 43.5 °F 37.9 °F 40.3 °F 88% 29.28 in 10.0 mi West 10.4 mph - N/A   Light Drizzle
10:53 PM 43.2 °F 37.4 °F 40.6 °F 91% 29.27 in 10.0 mi West 10.4 mph - N/A   Overcast
11:14 PM 43.2 °F 37.0 °F 40.5 °F 90% 29.26 in 10.0 mi West 11.5 mph - N/A Rain Light Rain
11:33 PM 43.2 °F 37.4 °F 40.5 °F 90% 29.26 in 10.0 mi West 10.4 mph - N/A   Light Drizzle
11:53 PM 43.0 °F 37.2 °F 40.5 °F 91% 29.25 in 10.0 mi West 10.4 mph - N/A   Overcast